Location: Brad
(46.1333°N, 22.7833°E)
Time: 11:10:10
(UTC+00:00)

CZ-4 R/B - Pass Details

Date: 03 February 2023
Orbit: 526 x 586 km, 97.7° (Epoch: 31 March)

Event Time Altitude Azimuth Distance (km) Brightness Sun altitude
Rises 17:58:02 0° 181° (S) 2,801 4.9 -24.7°
Reaches altitude 10° 18:00:16 10° 187° (S) 1,900 4.1 -25.1°
Maximum altitude 18:04:14 45° 261° (W) 797 2.5 -25.8°
Drops below altitude 10° 18:08:10 10° 335° (NNW) 1,886 4.4 -26.5°
Sets 18:10:23 0° 342° (NNW) 2,778 5.2 -26.9°
